Time,TemperatureF,DewpointF,PressureIn,WindDirection,WindDirectionDegrees,WindSpeedMPH,WindSpeedGustMPH,Humidity,HourlyPrecipIn,Conditions,Clouds,dailyrainin,SolarRadiationWatts/m^2,SoftwareType,DateUTC
2013-03-15 00:02:00,49.0,25.0,-100.00,SSW,209,4.0,14.0,39,0.00,,,0.00,0.000000,,2013-03-15 06:02:00,
2013-03-15 00:12:00,49.0,25.0,-100.00,SSW,209,4.0,14.0,39,0.00,,,0.00,0.000000,,2013-03-15 06:12:00,
2013-03-15 00:32:00,45.0,24.0,-100.00,SE,131,3.0,10.0,43,0.00,,,0.00,0.000000,,2013-03-15 06:32:00,
2013-03-15 00:42:00,45.0,24.0,-100.00,SE,131,3.0,10.0,43,0.00,,,0.00,0.000000,,2013-03-15 06:42:00,
2013-03-15 00:53:00,45.0,24.0,-100.00,SE,131,3.0,10.0,43,0.00,,,0.00,0.000000,,2013-03-15 06:53:00,
2013-03-15 01:02:00,45.0,24.0,-100.00,SE,131,3.0,10.0,43,0.00,,,0.00,0.000000,,2013-03-15 07:02:00,
2013-03-15 01:12:00,45.0,24.0,-100.00,SE,131,3.0,10.0,43,0.00,,,0.00,0.000000,,2013-03-15 07:12:00,
2013-03-15 01:42:00,49.0,27.0,-100.00,SSW,211,6.0,24.0,43,0.00,,,0.00,0.000000,,2013-03-15 07:42:00,
2013-03-15 01:52:00,49.0,27.0,-100.00,SSW,211,6.0,24.0,43,0.00,,,0.00,0.000000,,2013-03-15 07:52:00,
2013-03-15 02:02:00,49.0,27.0,-100.00,SSW,211,6.0,24.0,43,0.00,,,0.00,0.000000,,2013-03-15 08:02:00,
2013-03-15 02:12:00,49.0,27.0,-100.00,SSW,211,6.0,24.0,43,0.00,,,0.00,0.000000,,2013-03-15 08:12:00,
2013-03-15 02:42:00,47.0,26.0,-100.00,SSW,208,6.0,19.0,43,0.00,,,0.00,0.000000,,2013-03-15 08:42:00,
2013-03-15 02:52:00,47.0,26.0,-100.00,SSW,208,6.0,19.0,43,0.00,,,0.00,0.000000,,2013-03-15 08:52:00,
2013-03-15 03:02:00,47.0,26.0,-100.00,SSW,208,6.0,19.0,43,0.00,,,0.00,0.000000,,2013-03-15 09:02:00,
2013-03-15 03:11:00,47.0,26.0,-100.00,SSW,208,6.0,19.0,43,0.00,,,0.00,0.000000,,2013-03-15 09:11:00,
2013-03-15 03:33:00,45.0,27.0,-100.00,SSW,209,6.0,15.0,49,0.00,,,0.00,0.000000,,2013-03-15 09:33:00,
2013-03-15 03:43:00,45.0,27.0,-100.00,SSW,209,6.0,15.0,49,0.00,,,0.00,0.000000,,2013-03-15 09:43:00,
2013-03-15 03:53:00,45.0,27.0,-100.00,SSW,209,6.0,15.0,49,0.00,,,0.00,0.000000,,2013-03-15 09:53:00,
2013-03-15 04:02:00,45.0,27.0,-100.00,SSW,209,6.0,15.0,49,0.00,,,0.00,0.000000,,2013-03-15 10:02:00,
2013-03-15 04:12:00,45.0,27.0,-100.00,SSW,209,6.0,15.0,49,0.00,,,0.00,0.000000,,2013-03-15 10:12:00,
2013-03-15 04:33:00,42.0,29.0,-100.00,West,259,3.0,10.0,60,0.00,,,-99.99,0.000000,,2013-03-15 10:33:00,
2013-03-15 04:43:00,42.0,29.0,-100.00,West,259,3.0,10.0,60,0.00,,,-99.99,0.000000,,2013-03-15 10:43:00,
2013-03-15 04:52:00,42.0,29.0,-100.00,West,259,3.0,10.0,60,0.00,,,-99.99,0.000000,,2013-03-15 10:52:00,
2013-03-15 05:02:00,42.0,29.0,-100.00,West,259,3.0,10.0,60,0.00,,,-99.99,0.000000,,2013-03-15 11:02:00,
2013-03-15 05:12:00,42.0,29.0,-100.00,West,259,3.0,10.0,60,0.00,,,-99.99,0.000000,,2013-03-15 11:12:00,
2013-03-15 05:32:00,44.0,31.0,-100.00,SW,227,6.0,11.0,59,0.00,,,0.00,0.000000,,2013-03-15 11:32:00,
2013-03-15 05:42:00,44.0,31.0,-100.00,SW,227,6.0,11.0,59,0.00,,,0.00,0.000000,,2013-03-15 11:42:00,
2013-03-15 05:52:00,44.0,31.0,-100.00,SW,227,6.0,11.0,59,0.00,,,0.00,0.000000,,2013-03-15 11:52:00,
2013-03-15 06:02:00,44.0,31.0,-100.00,SW,227,6.0,11.0,59,0.00,,,0.00,0.000000,,2013-03-15 12:02:00,
2013-03-15 06:12:00,44.0,31.0,-100.00,SW,227,6.0,11.0,59,0.00,,,0.00,0.000000,,2013-03-15 12:12:00,
2013-03-15 06:42:00,44.0,30.0,-100.00,SW,223,6.0,20.0,57,0.00,,,0.00,0.000000,,2013-03-15 12:42:00,
2013-03-15 06:52:00,44.0,30.0,-100.00,SW,223,6.0,20.0,57,0.00,,,0.00,0.000000,,2013-03-15 12:52:00,
2013-03-15 07:02:00,44.0,30.0,-100.00,SW,223,6.0,20.0,57,0.00,,,0.00,0.000000,,2013-03-15 13:02:00,
2013-03-15 07:12:00,44.0,30.0,-100.00,SW,223,6.0,20.0,57,0.00,,,0.00,0.000000,,2013-03-15 13:12:00,
2013-03-15 07:42:00,43.0,30.0,-100.00,WNW,286,4.0,15.0,59,0.00,,,-99.99,0.000000,,2013-03-15 13:42:00,
2013-03-15 07:52:00,43.0,30.0,-100.00,WNW,286,4.0,15.0,59,0.00,,,-99.99,0.000000,,2013-03-15 13:52:00,
2013-03-15 08:02:00,43.0,30.0,-100.00,WNW,286,4.0,15.0,59,0.00,,,-99.99,0.000000,,2013-03-15 14:02:00,
2013-03-15 08:11:00,43.0,30.0,-100.00,WNW,286,4.0,15.0,59,0.00,,,-99.99,0.000000,,2013-03-15 14:11:00,
2013-03-15 08:42:00,43.0,31.0,-100.00,West,267,3.0,12.0,62,0.00,,,0.00,4.000000,,2013-03-15 14:42:00,
2013-03-15 08:53:00,43.0,31.0,-100.00,West,267,3.0,12.0,62,0.00,,,0.00,4.000000,,2013-03-15 14:53:00,
2013-03-15 09:02:00,43.0,31.0,-100.00,West,267,3.0,12.0,62,0.00,,,0.00,4.000000,,2013-03-15 15:02:00,
2013-03-15 09:12:00,43.0,31.0,-100.00,West,267,3.0,12.0,62,0.00,,,0.00,4.000000,,2013-03-15 15:12:00,
2013-03-15 09:43:00,43.0,31.0,-100.00,SW,220,3.0,13.0,62,0.00,,,0.00,44.000000,,2013-03-15 15:43:00,
2013-03-15 09:53:00,43.0,31.0,-100.00,SW,220,3.0,13.0,62,0.00,,,0.00,44.000000,,2013-03-15 15:53:00,
2013-03-15 10:02:00,43.0,31.0,-100.00,SW,220,3.0,13.0,62,0.00,,,0.00,44.000000,,2013-03-15 16:02:00,
2013-03-15 10:12:00,43.0,31.0,-100.00,SW,220,3.0,13.0,62,0.00,,,0.00,44.000000,,2013-03-15 16:12:00,
2013-03-15 10:32:00,44.0,31.0,-100.00,SW,218,6.0,13.0,61,0.00,,,0.00,136.000000,,2013-03-15 16:32:00,
2013-03-15 10:42:00,44.0,31.0,-100.00,SW,218,6.0,13.0,61,0.00,,,0.00,136.000000,,2013-03-15 16:42:00,
2013-03-15 10:52:00,44.0,31.0,-100.00,SW,218,6.0,13.0,61,0.00,,,0.00,136.000000,,2013-03-15 16:52:00,
2013-03-15 11:02:00,44.0,31.0,-100.00,SW,218,6.0,13.0,61,0.00,,,0.00,136.000000,,2013-03-15 17:02:00,
2013-03-15 11:12:00,44.0,31.0,-100.00,SW,218,6.0,13.0,61,0.00,,,0.00,136.000000,,2013-03-15 17:12:00,
2013-03-15 11:43:00,45.0,31.0,-100.00,SW,224,6.0,16.0,58,0.00,,,0.00,162.000000,,2013-03-15 17:43:00,
2013-03-15 11:53:00,45.0,31.0,-100.00,SW,224,6.0,16.0,58,0.00,,,0.00,162.000000,,2013-03-15 17:53:00,
2013-03-15 12:02:00,45.0,31.0,-100.00,SW,224,6.0,16.0,58,0.00,,,0.00,162.000000,,2013-03-15 18:02:00,
2013-03-15 12:12:00,45.0,31.0,-100.00,SW,224,6.0,16.0,58,0.00,,,0.00,162.000000,,2013-03-15 18:12:00,
2013-03-15 12:42:00,48.0,32.0,-100.00,SW,223,7.0,17.0,53,0.00,,,0.00,414.000000,,2013-03-15 18:42:00,
2013-03-15 12:52:00,48.0,32.0,-100.00,SW,223,7.0,17.0,53,0.00,,,0.00,414.000000,,2013-03-15 18:52:00,
2013-03-15 13:02:00,48.0,32.0,-100.00,SW,223,7.0,17.0,53,0.00,,,0.00,414.000000,,2013-03-15 19:02:00,
2013-03-15 13:12:00,48.0,32.0,-100.00,SW,223,7.0,17.0,53,0.00,,,0.00,414.000000,,2013-03-15 19:12:00,
2013-03-15 13:42:00,49.0,31.0,-100.00,SSW,209,8.0,16.0,49,0.00,,,-99.99,638.000000,,2013-03-15 19:42:00,
2013-03-15 13:52:00,49.0,31.0,-100.00,SSW,209,8.0,16.0,49,0.00,,,-99.99,638.000000,,2013-03-15 19:52:00,
2013-03-15 14:02:00,49.0,31.0,-100.00,SSW,209,8.0,16.0,49,0.00,,,-99.99,638.000000,,2013-03-15 20:02:00,
2013-03-15 14:12:00,49.0,31.0,-100.00,SSW,209,8.0,16.0,49,0.00,,,-99.99,638.000000,,2013-03-15 20:12:00,
2013-03-15 14:42:00,50.0,30.0,-100.00,SW,219,7.0,14.0,46,0.00,,,0.00,749.000000,,2013-03-15 20:42:00,
2013-03-15 14:52:00,50.0,30.0,-100.00,SW,219,7.0,14.0,46,0.00,,,0.00,749.000000,,2013-03-15 20:52:00,
2013-03-15 15:02:00,50.0,30.0,-100.00,SW,219,7.0,14.0,46,0.00,,,0.00,749.000000,,2013-03-15 21:02:00,
2013-03-15 15:11:00,50.0,30.0,-100.00,SW,219,7.0,14.0,46,0.00,,,0.00,749.000000,,2013-03-15 21:11:00,
2013-03-15 15:43:00,51.0,31.0,-100.00,SW,218,7.0,17.0,46,0.00,,,0.00,711.000000,,2013-03-15 21:43:00,
2013-03-15 15:52:00,51.0,31.0,-100.00,SW,218,7.0,17.0,46,0.00,,,0.00,711.000000,,2013-03-15 21:52:00,
2013-03-15 16:03:00,51.0,31.0,-100.00,SW,218,7.0,17.0,46,0.00,,,0.00,711.000000,,2013-03-15 22:03:00,
2013-03-15 16:12:00,51.0,31.0,-100.00,SW,218,7.0,17.0,46,0.00,,,0.00,711.000000,,2013-03-15 22:12:00,
2013-03-15 16:42:00,50.0,28.0,-100.00,SSW,208,6.0,15.0,42,0.00,,,0.00,601.000000,,2013-03-15 22:42:00,
2013-03-15 16:52:00,50.0,28.0,-100.00,SSW,208,6.0,15.0,42,0.00,,,0.00,601.000000,,2013-03-15 22:52:00,
2013-03-15 17:02:00,50.0,28.0,-100.00,SSW,208,6.0,15.0,42,0.00,,,0.00,601.000000,,2013-03-15 23:02:00,
2013-03-15 17:12:00,50.0,28.0,-100.00,SSW,208,6.0,15.0,42,0.00,,,0.00,601.000000,,2013-03-15 23:12:00,
2013-03-15 17:42:00,51.0,33.0,-100.00,SW,215,5.0,14.0,50,0.00,,,0.00,512.000000,,2013-03-15 23:42:00,
2013-03-15 17:53:00,51.0,33.0,-100.00,SW,215,5.0,14.0,50,0.00,,,0.00,512.000000,,2013-03-15 23:53:00,
2013-03-15 18:02:00,51.0,33.0,-100.00,SW,215,5.0,14.0,50,0.00,,,0.00,512.000000,,2013-03-16 00:02:00,
2013-03-15 18:12:00,51.0,33.0,-100.00,SW,215,5.0,14.0,50,0.00,,,0.00,512.000000,,2013-03-16 00:12:00,
2013-03-15 18:42:00,48.0,31.0,-100.00,SSW,210,5.0,14.0,52,0.00,,,0.00,338.000000,,2013-03-16 00:42:00,
2013-03-15 18:52:00,48.0,31.0,-100.00,SSW,210,5.0,14.0,52,0.00,,,0.00,338.000000,,2013-03-16 00:52:00,
2013-03-15 19:02:00,48.0,31.0,-100.00,SSW,210,5.0,14.0,52,0.00,,,0.00,338.000000,,2013-03-16 01:02:00,
2013-03-15 19:12:00,48.0,31.0,-100.00,SSW,210,5.0,14.0,52,0.00,,,0.00,338.000000,,2013-03-16 01:12:00,
2013-03-15 19:32:00,44.0,29.0,-100.00,South,191,4.0,10.0,56,0.00,,,0.00,66.000000,,2013-03-16 01:32:00,
2013-03-15 19:42:00,44.0,29.0,-100.00,South,191,4.0,10.0,56,0.00,,,0.00,66.000000,,2013-03-16 01:42:00,
2013-03-15 19:52:00,44.0,29.0,-100.00,South,191,4.0,10.0,56,0.00,,,0.00,66.000000,,2013-03-16 01:52:00,
2013-03-15 20:02:00,44.0,29.0,-100.00,South,191,4.0,10.0,56,0.00,,,0.00,66.000000,,2013-03-16 02:02:00,
2013-03-15 20:12:00,44.0,29.0,-100.00,South,191,4.0,10.0,56,0.00,,,0.00,66.000000,,2013-03-16 02:12:00,
2013-03-15 20:43:00,41.0,31.0,-100.00,ESE,106,3.0,7.0,67,0.00,,,0.00,6.000000,,2013-03-16 02:43:00,
2013-03-15 20:52:00,41.0,31.0,-100.00,ESE,106,3.0,7.0,67,0.00,,,0.00,6.000000,,2013-03-16 02:52:00,
2013-03-15 21:02:00,41.0,31.0,-100.00,ESE,106,3.0,7.0,67,0.00,,,0.00,6.000000,,2013-03-16 03:02:00,
2013-03-15 21:11:00,41.0,31.0,-100.00,ESE,106,3.0,7.0,67,0.00,,,0.00,6.000000,,2013-03-16 03:11:00,
2013-03-15 21:43:00,37.0,28.0,-100.00,SE,140,2.0,6.0,71,0.00,,,0.00,0.000000,,2013-03-16 03:43:00,
2013-03-15 21:53:00,37.0,28.0,-100.00,SE,140,2.0,6.0,71,0.00,,,0.00,0.000000,,2013-03-16 03:53:00,
2013-03-15 22:02:00,37.0,28.0,-100.00,SE,140,2.0,6.0,71,0.00,,,0.00,0.000000,,2013-03-16 04:02:00,
2013-03-15 22:12:00,37.0,28.0,-100.00,SE,140,2.0,6.0,71,0.00,,,0.00,0.000000,,2013-03-16 04:12:00,
2013-03-15 22:33:00,31.0,27.0,-100.00,WNW,295,2.0,4.0,86,0.00,,,0.00,0.000000,,2013-03-16 04:33:00,
2013-03-15 23:32:00,32.0,30.0,-100.00,NNW,337,2.0,4.0,92,-99.99,,,0.00,0.000000,,2013-03-16 05:32:00,
2013-03-15 23:42:00,32.0,30.0,-100.00,NNW,337,2.0,4.0,92,-99.99,,,0.00,0.000000,,2013-03-16 05:42:00,
2013-03-15 23:53:00,32.0,30.0,-100.00,NNW,337,2.0,4.0,92,-99.99,,,0.00,0.000000,,2013-03-16 05:53:00,